User: anonymous   Login
Location: Sobotiste
(48.7170°N, 17.4000°E)
Time: 20:29:39
(UTC+01:00)
Language:

Envisat - Orbit

View from above orbital plane
View from above orbital plane
View from above satellite
View from above satellite

Ground track
Ground track

The orbit data is extracted from the following two-line orbital elements,

1 27386U 02009A   19083.02477603  .00000006  00000-0  15346-4 0  9996
2 27386  98.1560 108.4459 0001202  81.2953 278.8365 14.37943958893744
Epoch (UTC): 24 March 2019 00:35:40
Eccentricity: 0.0001202
inclination: 98.1560°
perigee height: 764 km
apogee height: 766 km
right ascension of ascending node: 108.4459°
argument of perigee: 81.2953°
revolutions per day: 14.37943958
mean anomaly at epoch: 278.8365°
orbit number at epoch: 89374

The dashed part of the orbit path shows where the satellite is in the earth's shadow,  

DLR